{"data":{"norad_id":68850,"intl_designator":"2026-094M","name":"STARLINK-37482","alt_names":[],"object_type":"PAYLOAD","status":"ACTIVE","operator":null,"country":"US","launch_date":"2026-04-26","launch_site_code":"AFWTR","launch_vehicle":null,"mission":null,"orbit_class":"UNKNOWN","rcs_meters":null,"size_class":null,"mass_kg":null,"dimensions":null,"purposes":["comms"],"wikipedia_slug":null,"has_3d_model":false,"image_url":null,"decayed_at":null,"tle_current":{"epoch":"2026-09-20T00:23:22.254720Z","epoch_age_seconds":57410,"freshness":"FRESH","line1":"1 68850U 26094M   26263.01622980  .00012093  00000+0  37617-3 0  9996","line2":"2 68850  97.2846 276.1447 0002005  83.5826 276.5645 15.33454347 22586","mean_motion":15.33454347,"eccentricity":0.0002005,"inclination_deg":97.2846,"raan_deg":276.1447,"arg_perigee_deg":83.5826,"mean_anomaly_deg":276.5645,"bstar":0.00037617,"rev_number":2258,"period_min":93.905632262034,"perigee_km":464.14321222448,"apogee_km":466.88751682265,"semimajor_km":6843.6523645236,"source":"CELESTRAK","updated_at":"2026-09-20T09:00:44.016883Z"}}}